Location: Alando
(42.3054°N, 9.2895°E)
Time: 16:36:25
(UTC+00:00)

Resurs 01 Rocket - Pass Details

Date: 09 April 2020
Orbit: 634 x 644 km, 98.0° (Epoch: 05 June)

Event Time Altitude Azimuth Distance (km) Brightness Sun altitude
Exits shadow 19:17:41 25° 116° (ESE) 1,300 2.6 -14.8°
Maximum altitude 19:19:32 36° 70° (ENE) 1,020 2.3 -15.1°
Drops below altitude 10° 19:23:34 10° 4° (N) 2,034 4.5 -15.7°
Sets 19:25:55 0° 356° (N) 2,949 5.5 -16.1°
